�������l�o���
Date,Time,MP-1(��Sv/h),MP-2(��Sv/h),MP-3(��Sv/h),MP-4(��Sv/h),MP-5(��Sv/h),MP-6(��Sv/h),MP-7(��Sv/h),MP-8(��Sv/h),����,����(m/s),���J
2020/01/17,00:00,0.694,0.989,0.653,1.236,0.869,0.401,0.700,0.666,��,6.6,��
2020/01/17,00:10,0.693,0.989,0.653,1.236,0.870,0.400,0.701,0.667,��,6.6,��
2020/01/17,00:20,0.695,0.989,0.654,1.238,0.869,0.400,0.699,0.668,��,6.3,��
2020/01/17,00:30,0.695,0.990,0.653,1.236,0.869,0.399,0.699,0.666,��,6.3,��
2020/01/17,00:40,0.694,0.993,0.654,1.237,0.869,0.401,0.699,0.667,���쐼,5.2,��
2020/01/17,00:50,0.696,0.989,0.654,1.237,0.870,0.400,0.699,0.665,���쐼,5.5,��
2020/01/17,01:00,0.693,0.989,0.655,1.238,0.870,0.400,0.701,0.666,��,6.3,��
2020/01/17,01:10,0.693,0.991,0.654,1.237,0.870,0.401,0.701,0.667,��,7.1,��
2020/01/17,01:20,0.693,0.990,0.653,1.236,0.869,0.401,0.701,0.667,��,7.4,��
2020/01/17,01:30,0.695,0.992,0.654,1.238,0.869,0.400,0.699,0.667,��,7.4,��
2020/01/17,01:40,0.695,0.992,0.653,1.237,0.870,0.400,0.700,0.666,��,6.7,��
2020/01/17,01:50,0.696,0.990,0.653,1.239,0.871,0.401,0.701,0.667,��,6.7,��
2020/01/17,02:00,0.694,0.989,0.654,1.236,0.870,0.400,0.699,0.666,���k��,7.8,��
2020/01/17,02:10,0.693,0.990,0.655,1.237,0.871,0.400,0.701,0.667,���k��,8.2,��
2020/01/17,02:20,0.694,0.989,0.654,1.239,0.869,0.399,0.703,0.667,���k��,8.5,��
2020/01/17,02:30,0.695,0.990,0.653,1.236,0.870,0.400,0.701,0.667,��,7.7,��
2020/01/17,02:40,0.693,0.990,0.653,1.238,0.868,0.399,0.699,0.666,��,8.5,��
2020/01/17,02:50,0.694,0.990,0.655,1.239,0.870,0.400,0.700,0.667,��,8.5,��
2020/01/17,03:00,0.695,0.990,0.652,1.237,0.867,0.400,0.700,0.665,���k��,7.7,��
2020/01/17,03:10,0.696,0.989,0.654,1.235,0.870,0.400,0.699,0.666,��,7.2,��
2020/01/17,03:20,0.693,0.988,0.653,1.237,0.869,0.400,0.701,0.666,��,7.4,��
2020/01/17,03:30,0.695,0.989,0.653,1.236,0.870,0.400,0.700,0.668,��,7.5,��
2020/01/17,03:40,0.695,0.990,0.653,1.238,0.868,0.401,0.700,0.668,��,6.4,��
2020/01/17,03:50,0.695,0.989,0.655,1.237,0.868,0.399,0.700,0.666,��,7.2,��
2020/01/17,04:00,0.695,0.990,0.653,1.238,0.868,0.401,0.701,0.665,��,7.4,��
2020/01/17,04:10,0.695,0.990,0.654,1.238,0.869,0.399,0.701,0.667,���k��,5.8,��
2020/01/17,04:20,0.696,0.990,0.653,1.238,0.867,0.399,0.702,0.667,���k��,6.0,��
2020/01/17,04:30,0.694,0.990,0.654,1.238,0.868,0.399,0.701,0.667,���k��,5.8,��
2020/01/17,04:40,0.692,0.991,0.654,1.238,0.867,0.399,0.701,0.668,���k��,6.0,��
2020/01/17,04:50,0.694,0.989,0.654,1.237,0.869,0.400,0.699,0.665,���k��,6.4,��
2020/01/17,05:00,0.694,0.989,0.655,1.237,0.868,0.399,0.699,0.667,���k��,7.7,��
2020/01/17,05:10,0.693,0.990,0.653,1.238,0.868,0.399,0.702,0.666,���k��,7.4,��
2020/01/17,05:20,0.693,0.990,0.654,1.241,0.868,0.399,0.700,0.666,���k��,8.8,��
2020/01/17,05:30,0.696,0.988,0.654,1.238,0.868,0.400,0.702,0.667,���k��,7.8,��
2020/01/17,05:40,0.694,0.990,0.653,1.236,0.869,0.399,0.701,0.668,���k��,7.7,��
2020/01/17,05:50,0.694,0.988,0.653,1.238,0.868,0.399,0.701,0.667,���k��,7.8,��
2020/01/17,06:00,0.693,0.986,0.654,1.239,0.868,0.400,0.702,0.668,���k��,7.7,��
2020/01/17,06:10,0.697,0.989,0.654,1.237,0.867,0.399,0.700,0.667,��,7.4,��
2020/01/17,06:20,0.694,0.988,0.653,1.238,0.867,0.400,0.700,0.668,���k��,6.3,��
2020/01/17,06:30,0.694,0.991,0.653,1.237,0.867,0.400,0.700,0.666,��,4.4,��
2020/01/17,06:40,0.696,0.987,0.653,1.237,0.866,0.400,0.700,0.666,���쐼,4.6,��
2020/01/17,06:50,0.694,0.989,0.655,1.237,0.866,0.400,0.701,0.665,���쐼,4.5,��
2020/01/17,07:00,0.693,0.987,0.653,1.238,0.867,0.399,0.700,0.667,���쐼,3.9,��
2020/01/17,07:10,0.694,0.988,0.650,1.238,0.868,0.398,0.700,0.666,���쐼,3.6,��
2020/01/17,07:20,0.694,0.986,0.652,1.237,0.866,0.399,0.699,0.666,-,CALM,��
2020/01/17,07:30,0.695,0.988,0.652,1.239,0.867,0.400,0.699,0.667,-,CALM,��
2020/01/17,07:40,0.694,0.988,0.653,1.237,0.869,0.399,0.700,0.668,���k��,3.2,��
2020/01/17,07:50,0.694,0.988,0.652,1.238,0.868,0.398,0.700,0.665,��,3.2,��
2020/01/17,08:00,0.694,0.989,0.654,1.238,0.869,0.400,0.700,0.668,��,2.7,��
2020/01/17,08:10,0.693,0.991,0.652,1.238,0.868,0.400,0.700,0.667,���k��,1.4,��
2020/01/17,08:20,0.694,0.986,0.654,1.236,0.868,0.397,0.700,0.666,�k��,1.8,��
2020/01/17,08:30,0.694,0.989,0.652,1.237,0.867,0.397,0.700,0.667,�k�k��,2.3,��
2020/01/17,08:40,0.694,0.989,0.653,1.237,0.869,0.397,0.700,0.667,�k��,2.4,��
2020/01/17,08:50,0.695,0.987,0.652,1.239,0.870,0.397,0.699,0.666,�k��,3.0,��
2020/01/17,09:00,0.697,0.986,0.654,1.238,0.858,0.398,0.702,0.668,�k��,2.7,��
2020/01/17,09:10,0.696,0.988,0.655,1.239,0.846,0.401,0.702,0.666,�k��,1.8,��
2020/01/17,09:20,0.696,0.988,0.653,1.239,0.848,0.400,0.701,0.668,���k��,1.3,��
2020/01/17,09:30,0.697,0.986,0.653,1.239,0.853,0.400,0.703,0.666,���k��,2.1,��
2020/01/17,09:40,0.697,0.990,0.651,1.239,0.838,0.401,0.702,0.665,�k��,2.5,��
2020/01/17,09:50,0.698,0.990,0.651,1.238,0.844,0.400,0.700,0.668,�k,1.8,��
2020/01/17,10:00,0.697,0.989,0.651,1.241,0.846,0.400,0.699,0.668,�k�k��,1.5,��
2020/01/17,10:10,0.696,0.988,0.650,1.241,0.843,0.401,0.698,0.667,�k�k��,1.8,��
2020/01/17,10:20,0.699,0.987,0.649,1.240,0.851,0.400,0.700,0.667,�k��,2.9,��
2020/01/17,10:30,-,0.986,0.653,1.241,0.843,0.400,0.699,0.668,�k��,2.6,��
2020/01/17,10:40,-,0.987,0.651,1.241,0.846,0.400,0.700,0.668,�k�k��,3.3,��
2020/01/17,10:50,-,0.989,0.655,1.240,0.843,0.401,0.700,0.667,�k�k��,3.9,��
2020/01/17,11:00,-,0.988,0.654,1.239,0.846,0.399,0.700,0.669,�k�k��,4.0,��
2020/01/17,11:10,0.698,0.986,0.656,1.244,0.841,0.401,0.700,0.667,�k�k��,4.4,��
2020/01/17,11:20,0.698,0.988,0.654,1.240,0.842,0.401,0.699,0.668,�k�k��,3.4,��
2020/01/17,11:30,0.701,0.988,0.655,1.243,0.847,0.400,0.700,0.669,�k�k��,4.3,��
2020/01/17,11:40,0.697,0.987,0.655,1.239,0.830,0.400,0.697,0.668,�k��,2.4,��
2020/01/17,11:50,0.697,0.990,0.655,1.241,0.842,0.399,0.699,0.667,�k��,3.3,��
2020/01/17,12:00,0.697,0.989,0.654,1.241,0.841,0.400,0.699,0.668,�k��,3.5,��
2020/01/17,12:10,0.699,0.989,0.655,1.240,0.837,0.400,0.699,0.668,�k��,3.2,��
2020/01/17,12:20,0.698,0.991,0.655,1.243,0.841,0.400,0.700,0.668,�k��,3.5,��
2020/01/17,12:30,0.698,0.993,0.655,1.244,0.866,0.400,0.701,0.669,�k��,3.9,��
2020/01/17,12:40,0.700,0.992,0.655,1.241,0.870,0.399,0.701,0.668,�k��,4.3,��
2020/01/17,12:50,0.701,0.992,0.658,1.243,0.868,0.400,0.701,0.669,�k��,4.0,��
2020/01/17,13:00,0.701,0.991,0.656,1.242,0.867,0.401,0.701,0.669,�k��,3.4,��
2020/01/17,13:10,0.701,0.992,0.653,1.243,0.863,0.402,0.701,0.668,�k�k��,3.9,��
2020/01/17,13:20,0.700,0.990,0.658,1.243,0.846,0.403,0.703,0.667,�k��,3.5,��
2020/01/17,13:30,0.704,0.992,0.658,1.241,0.848,0.402,0.703,0.669,�k�k��,4.1,��
2020/01/17,13:40,0.700,0.990,0.656,1.240,0.848,0.402,0.702,0.668,�k��,4.3,��
2020/01/17,13:50,0.699,0.992,0.656,1.241,0.850,0.402,0.703,0.666,�k��,4.2,��
2020/01/17,14:00,0.700,0.994,0.656,1.243,0.852,0.400,0.703,0.668,�k�k��,4.1,��
2020/01/17,14:10,0.702,0.990,0.656,1.243,0.856,0.401,0.704,0.667,�k�k��,3.3,��
2020/01/17,14:20,0.701,0.993,0.657,1.243,0.854,0.400,0.703,0.667,�k��,3.0,��
2020/01/17,14:30,0.702,0.992,0.657,1.242,0.862,0.403,0.703,0.664,�k�k��,2.4,��
2020/01/17,14:40,0.702,0.992,0.658,1.241,0.855,0.403,0.703,0.666,�k��,2.8,��
2020/01/17,14:50,0.702,0.995,0.657,1.243,0.854,0.401,0.704,0.666,�k�k��,1.9,��
2020/01/17,15:00,0.701,0.995,0.656,1.246,0.852,0.402,0.705,0.668,�k�k��,1.8,��
2020/01/17,15:10,0.703,0.996,0.657,1.243,0.848,0.402,0.704,0.668,�k�k��,1.9,��
2020/01/17,15:20,0.702,0.995,0.657,1.241,0.866,0.401,0.703,0.669,�k�k��,1.8,��
2020/01/17,15:30,0.703,0.997,0.657,1.241,0.867,0.403,0.702,0.667,�k�k��,1.5,��
2020/01/17,15:40,0.703,0.997,0.657,1.243,0.861,0.403,0.703,0.668,���쓌,0.9,��
2020/01/17,15:50,0.702,0.995,0.657,1.242,0.863,0.401,0.702,0.668,�k,0.7,��
2020/01/17,16:00,0.702,0.997,0.656,1.242,0.877,0.403,0.703,0.666,-,CALM,��
2020/01/17,16:10,0.702,0.996,0.657,1.242,0.877,0.402,0.702,0.668,�k�k��,1.4,��
2020/01/17,16:20,0.701,0.997,0.656,1.242,0.874,0.403,0.704,0.668,�k��,1.1,��
2020/01/17,16:30,0.703,0.997,0.657,1.244,0.877,0.401,0.703,0.667,���쓌,1.1,��
2020/01/17,16:40,0.701,0.996,0.657,1.243,0.877,0.402,0.702,0.667,���k��,0.8,��
2020/01/17,16:50,0.703,1.000,0.658,1.241,0.875,0.401,0.701,0.669,�쓌,1.7,��
2020/01/17,17:00,0.703,0.997,0.658,1.242,0.875,0.402,0.704,0.667,�쓌,1.4,��
2020/01/17,17:10,0.701,0.997,0.659,1.242,0.877,0.402,0.703,0.669,-,CALM,��
2020/01/17,17:20,0.702,0.999,0.659,1.242,0.876,0.402,0.704,0.669,�k�k��,1.5,��
2020/01/17,17:30,0.702,0.997,0.657,1.242,0.877,0.402,0.702,0.669,���k��,1.2,��
2020/01/17,17:40,0.702,0.995,0.657,1.242,0.877,0.402,0.702,0.670,�k�k��,1.2,��
2020/01/17,17:50,0.700,0.996,0.657,1.241,0.875,0.403,0.701,0.669,-,CALM,��
2020/01/17,18:00,0.703,0.996,0.658,1.242,0.877,0.402,0.703,0.668,���쐼,1.4,��
2020/01/17,18:10,0.699,0.997,0.657,1.241,0.877,0.402,0.701,0.668,�k��,3.0,��
2020/01/17,18:20,0.700,0.996,0.657,1.241,0.878,0.403,0.703,0.667,�k�k��,4.5,��
2020/01/17,18:30,0.699,0.995,0.659,1.243,0.877,0.402,0.703,0.669,�k��,4.1,��
2020/01/17,18:40,0.700,0.996,0.657,1.242,0.875,0.402,0.703,0.668,�k�k��,3.8,��
2020/01/17,18:50,0.702,0.997,0.657,1.242,0.878,0.402,0.701,0.668,�k�k��,3.8,��
2020/01/17,19:00,0.701,0.999,0.657,1.245,0.877,0.400,0.703,0.667,�k�k��,3.8,��
2020/01/17,19:10,0.702,0.998,0.657,1.240,0.877,0.401,0.703,0.668,�k�k��,4.1,��
2020/01/17,19:20,0.700,0.996,0.657,1.244,0.875,0.401,0.702,0.667,�k��,3.8,��
2020/01/17,19:30,0.698,0.997,0.659,1.242,0.876,0.402,0.702,0.668,�k�k��,3.4,��
2020/01/17,19:40,0.700,0.996,0.658,1.242,0.876,0.400,0.702,0.667,�k�k��,3.6,��
2020/01/17,19:50,0.699,0.994,0.657,1.243,0.877,0.401,0.702,0.666,�k�k��,3.6,��
2020/01/17,20:00,0.701,0.998,0.658,1.241,0.879,0.402,0.701,0.667,�k�k��,3.4,��
2020/01/17,20:10,0.700,0.998,0.659,1.242,0.877,0.402,0.703,0.667,�k�k��,3.1,��
2020/01/17,20:20,0.700,0.999,0.659,1.242,0.877,0.401,0.701,0.666,�k�k��,3.4,��
2020/01/17,20:30,0.700,0.996,0.657,1.243,0.878,0.400,0.701,0.666,�k,5.0,��
2020/01/17,20:40,0.701,0.998,0.657,1.244,0.878,0.401,0.700,0.666,�k,5.2,��
2020/01/17,20:50,0.699,0.998,0.658,1.243,0.877,0.400,0.700,0.668,�k�k��,5.0,��
2020/01/17,21:00,0.700,0.996,0.657,1.244,0.878,0.400,0.700,0.669,�k�k��,5.3,��
2020/01/17,21:10,0.699,0.996,0.657,1.243,0.877,0.401,0.700,0.668,�k,5.5,��
2020/01/17,21:20,0.698,0.998,0.657,1.243,0.877,0.400,0.701,0.667,�k�k��,5.2,��
2020/01/17,21:30,0.699,0.997,0.657,1.243,0.875,0.401,0.701,0.668,�k�k��,6.7,��
2020/01/17,21:40,0.700,0.997,0.657,1.244,0.876,0.400,0.702,0.666,�k�k��,6.1,��
2020/01/17,21:50,0.700,0.996,0.656,1.245,0.875,0.400,0.700,0.668,�k�k��,6.0,��
2020/01/17,22:00,0.701,0.997,0.658,1.241,0.876,0.400,0.702,0.667,�k�k��,5.5,��
2020/01/17,22:10,0.698,0.998,0.657,1.246,0.879,0.402,0.702,0.668,�k�k��,5.5,��
2020/01/17,22:20,0.700,0.996,0.658,1.243,0.876,0.401,0.701,0.667,�k�k��,6.0,��
2020/01/17,22:30,0.700,0.997,0.658,1.242,0.878,0.400,0.701,0.668,�k�k��,5.8,��
2020/01/17,22:40,0.699,1.000,0.657,1.246,0.878,0.401,0.701,0.668,�k�k��,5.2,��
2020/01/17,22:50,0.699,0.998,0.658,1.245,0.878,0.401,0.702,0.668,�k�k��,5.2,��
2020/01/17,23:00,0.699,0.995,0.658,1.244,0.875,0.400,0.702,0.669,�k�k��,5.6,��
2020/01/17,23:10,0.700,0.997,0.658,1.243,0.875,0.400,0.701,0.669,�k�k��,5.6,��
2020/01/17,23:20,0.699,0.997,0.658,1.244,0.876,0.401,0.702,0.668,�k�k��,6.4,��
2020/01/17,23:30,0.700,0.998,0.656,1.243,0.877,0.400,0.702,0.669,�k�k��,6.6,��
2020/01/17,23:40,0.700,0.996,0.658,1.244,0.876,0.401,0.703,0.668,�k�k��,6.9,��
2020/01/17,23:50,0.699,0.996,0.658,1.240,0.874,0.400,0.703,0.667,�k�k��,6.9,��
